Regional Weather Roundup
Issued by NWS

Home | Current Version | Previous Version | Text Only | Print | Product List | Glossary Off
Versions: 1 2 3 4 5 6 7 8 9 10 11 12 13 14 15 16 17 18 19 20 21 22 23 24 25 26 27 28 29 30 31 32 33 34 35 36 37 38 39 40 41 42 43 44 45 46 47 48 49 50

000
ASUS43 KLSX 202057
RWRMO

WEATHER SUMMARY FOR MISSOURI
NATIONAL WEATHER SERVICE SPRINGFIELD MO
400 PM CDT SUN AUG 20 2017

NOTE: "FAIR" INDICATES FEW OR NO CLOUDS BELOW 12,000 FEET WITH NO
       SIGNIFICANT WEATHER AND/OR OBSTRUCTIONS TO VISIBILITY.
       CURRENT SKY AND/OR WEATHER CONDITIONS ARE NOT AVAILABLE FOR
       CHILLICOTHE AND FARMINGTON.

MOZ001>031-035>038-043-044-053-054-202200-
...NORTHERN AND WESTERN MISSOURI...

CITY           SKY/WX    TMP DP  RH WIND       PRES   REMARKS
KANSAS CTY INT PTSUNNY   85  71  63 NE15      30.02S HX  90
LEE`S SUMMIT   SUNNY     88  73  61 E7        30.02R HX  95
ST JOSEPH      MOSUNNY   86  66  51 SE14G26   29.97F
CHILLICOTHE      N/A     77  68  73 N7        30.04S

$$
MOZ066>068-077>081-088>096-101>105-202200-
...SOUTHWEST MISSOURI...

CITY           SKY/WX    TMP DP  RH WIND       PRES   REMARKS
SPRINGFIELD    MOSUNNY   91  76  61 VRB7      30.01S HX 103
JOPLIN         SUNNY     95  73  48 SW14G22   29.98S HX 104
BRANSON        PTSUNNY   90  75  62 SE7       30.03F HX 100

$$
MOZ032>034-039>042-045>050-055>058-069>072-202200-
...CENTRAL MISSOURI...

CITY           SKY/WX    TMP DP  RH WIND       PRES   REMARKS
COLUMBIA       NOT AVBL
JEFFERSON CITY SUNNY     89  73  59 S7        29.99S HX  97
SEDALIA        SUNNY     89  76  65 S6        30.04R HX 100
WARRENSBURG    MOSUNNY   88  73  62 CALM      30.02R HX  96

$$
MOZ051-052-059>065-202200-
...EAST CENTRAL MISSOURI...

CITY           SKY/WX    TMP DP  RH WIND       PRES   REMARKS
ST LOUIS INTL  MOSUNNY   92  69  47 S9        30.00R HX  97

$$
MOZ072>076-082>087-097>100-106>115-202200-
...SOUTH CENTRAL AND SOUTHEAST MISSOURI...

CITY           SKY/WX    TMP DP  RH WIND       PRES   REMARKS
CAPE GIRARDEAU CLOUDY    84  75  74 W10       30.03R HX  92
POPLAR BLUFF   CLOUDY    78  72  81 NE7       30.05R
WEST PLAINS    MOSUNNY   86  71  60 SE6       30.08R HX  91

$$



USA.gov is the U.S. government's official web portal to all federal, state and local government web resources and services.